TimeCST,TemperatureF,Dew PointF,Humidity,Sea Level PressureIn,VisibilityMPH,Wind Direction,Wind SpeedMPH,Gust SpeedMPH,PrecipitationIn,Events,Conditions,WindDirDegrees,DateUTC
12:02 AM,32.0,30.2,93,30.14,2.0,SE,5.8,-,N/A,,Overcast,130,2012-12-01 06:02:00
12:54 AM,32.0,30.9,96,30.19,1.8,ESE,5.8,-,N/A,,Overcast,110,2012-12-01 06:54:00
1:54 AM,32.0,32.0,100,30.17,1.2,ESE,5.8,-,N/A,,Overcast,110,2012-12-01 07:54:00
2:54 AM,33.1,32.0,96,30.15,1.8,ESE,5.8,-,N/A,,Overcast,120,2012-12-01 08:54:00
3:06 AM,33.8,32.0,93,30.09,2.0,ESE,6.9,-,N/A,,Overcast,120,2012-12-01 09:06:00
3:54 AM,33.1,32.0,96,30.14,2.0,SE,6.9,-,N/A,,Overcast,140,2012-12-01 09:54:00
4:54 AM,33.1,32.0,96,30.12,2.0,SE,9.2,-,N/A,,Overcast,130,2012-12-01 10:54:00
5:12 AM,33.8,32.0,93,30.05,1.8,ESE,6.9,-,N/A,,Overcast,120,2012-12-01 11:12:00
5:27 AM,33.8,32.0,93,30.04,2.0,ESE,8.1,-,N/A,,Overcast,120,2012-12-01 11:27:00
6:15 AM,33.8,33.8,100,30.04,2.5,SE,8.1,-,N/A,,Overcast,140,2012-12-01 12:15:00
6:54 AM,34.0,33.1,96,30.08,2.5,SE,9.2,-,N/A,,Overcast,130,2012-12-01 12:54:00
7:54 AM,35.1,33.1,92,30.06,1.5,SE,9.2,-,N/A,,Overcast,140,2012-12-01 13:54:00
8:54 AM,36.0,34.0,93,30.04,1.2,SSE,10.4,-,N/A,,Overcast,150,2012-12-01 14:54:00
9:54 AM,36.0,35.1,97,30.02,1.5,SE,11.5,-,N/A,,Overcast,140,2012-12-01 15:54:00
10:54 AM,37.0,36.0,96,29.99,1.5,SE,11.5,-,N/A,,Overcast,140,2012-12-01 16:54:00
11:54 AM,37.9,36.0,93,29.95,1.8,SE,8.1,-,N/A,,Overcast,130,2012-12-01 17:54:00
12:20 PM,39.2,35.6,87,29.89,1.8,SE,8.1,-,N/A,,Overcast,130,2012-12-01 18:20:00
1:54 PM,39.0,37.0,93,29.89,1.5,ESE,6.9,-,0.00,,Overcast,110,2012-12-01 19:54:00
2:54 PM,39.0,37.9,96,29.86,1.0,SE,8.1,-,0.00,,Overcast,130,2012-12-01 20:54:00
3:54 PM,39.9,37.9,93,29.84,1.5,SE,9.2,-,N/A,,Overcast,140,2012-12-01 21:54:00
4:08 PM,39.2,39.2,100,29.79,0.8,SE,11.5,-,N/A,,Overcast,140,2012-12-01 22:08:00
4:15 PM,39.2,39.2,100,29.78,1.2,SE,8.1,-,N/A,,Overcast,140,2012-12-01 22:15:00
4:54 PM,39.9,39.9,100,29.83,1.2,SSE,5.8,-,N/A,,Overcast,160,2012-12-01 22:54:00
5:06 PM,39.2,39.2,100,29.78,1.2,SSE,6.9,-,N/A,,Overcast,160,2012-12-01 23:06:00
5:31 PM,41.0,39.2,93,29.78,0.8,SSE,8.1,-,N/A,,Overcast,150,2012-12-01 23:31:00
5:54 PM,41.0,39.9,96,29.81,0.5,SSE,8.1,-,N/A,Fog,Fog,150,2012-12-01 23:54:00
6:54 PM,42.1,41.0,96,29.82,0.2,South,10.4,-,0.00,Fog-Rain,Light Rain,180,2012-12-02 00:54:00
7:54 PM,42.1,42.1,100,29.82,0.2,South,5.8,-,0.00,Fog,Fog,190,2012-12-02 01:54:00
8:54 PM,43.0,43.0,100,29.81,0.2,SSW,3.5,-,N/A,Fog,Fog,200,2012-12-02 02:54:00
9:54 PM,43.0,43.0,100,29.81,0.5,SSW,6.9,-,N/A,Fog,Fog,210,2012-12-02 03:54:00
10:54 PM,43.0,43.0,100,29.81,0.2,SW,5.8,-,0.01,Fog,Fog,220,2012-12-02 04:54:00
11:54 PM,44.1,44.1,100,29.82,0.5,WSW,6.9,-,N/A,Fog,Fog,240,2012-12-02 05:54:00